Printer-friendly version

IAU Minor Planet Center

Minor Planet Center

MPEC 2004-R14 : 2004 RK

The following Minor Planet Electronic Circular may be linked-to from your own Web pages, but must not otherwise be redistributed electronically.


Read MPEC 2004-R13 Read MPEC 2004-R15


M.P.E.C. 2004-R14                                Issued 2004 Sept. 4, 20:33 UT

     The Minor Planet Electronic Circulars contain information on unusual
         minor planets and routine data on comets.  They are published
   on behalf of Commission 20 of the International Astronomical Union by the
          Minor Planet Center, Smithsonian Astrophysical Observatory,
                          Cambridge, MA 02138, U.S.A.

                  Supported in part by the Brinson Foundation
             Prepared using the Tamkin Foundation Computer Network

                              MPC@CFA.HARVARD.EDU
          URL http://cfa-www.harvard.edu/iau/mpc.html  ISSN 1523-6714

                                    2004 RK

Observations:
     K04R00K* C2004 09 03.34930 21 59 18.92 +11 48 50.7          18.4 R ER014699
     K04R00K  C2004 09 03.36231 21 59 17.68 +11 48 19.6                 ER014699
     K04R00K  C2004 09 03.37528 21 59 16.48 +11 47 50.7                 ER014699
     K04R00K  C2004 09 03.39027 21 59 15.20 +11 47 16.8                 ER014699
     K04R00K  C2004 09 03.79382 21 58 42.32 +11 31 32.3          19.3 R ER014118
     K04R00K  C2004 09 03.79735 21 58 42.13 +11 31 24.3          18.9 R ER014118
     K04R00K  C2004 09 03.80803 21 58 41.08 +11 30 58.8          18.1 R ER014118
     K04R00K  C2004 09 03.81157 21 58 40.77 +11 30 50.0          18.9 R ER014118
     K04R00K  C2004 09 03.81982 21 58 40.14 +11 30 31.7          18.8 R ER014143
     K04R00K  C2004 09 03.82159 21 58 39.85 +11 30 27.6                 ER014246
     K04R00K  C2004 09 03.82236 21 58 39.81 +11 30 25.5                 ER014246
     K04R00K  C2004 09 03.82312 21 58 39.75 +11 30 23.8                 ER014246
     K04R00K  C2004 09 03.82389 21 58 39.61 +11 30 22.2                 ER014246
     K04R00K  C2004 09 03.82428 21 58 39.67 +11 30 20.3          18.6 R ER014143
     K04R00K  C2004 09 03.82471 21 58 39.59 +11 30 20.1                 ER014246
     K04R00K  C2004 09 03.82624 21 58 39.47 +11 30 16.3                 ER014246
     K04R00K  C2004 09 03.82789 21 58 39.28 +11 30 12.6                 ER014246
     K04R00K  C2004 09 03.82914 21 58 39.25 +11 30 09.2          18.3 R ER014143
     K04R00K  C2004 09 03.85934 21 58 36.58 +11 28 58.6          18.5 R ER014163
     K04R00K  C2004 09 03.85988 21 58 36.52 +11 28 57.2          18.5 R ER014163
     K04R00K  C2004 09 03.86093 21 58 36.43 +11 28 53.8          18.6 R ER014163
     K04R00K  C2004 09 03.87538 21 58 35.21 +11 28 20.2          18.9 R ER014J95
     K04R00K  C2004 09 03.88127 21 58 34.66 +11 28 06.0          18.8 R ER014J95
     K04R00K  C2004 09 03.88687 21 58 34.17 +11 27 53.0          18.8 R ER014J95
     K04R00K  C2004 09 04.12795 21 58 13.89 +11 18 25.8          19.2 R ER014H36
     K04R00K  C2004 09 04.13664 21 58 13.00 +11 18 06.1          18.8 R ER014H36
     K04R00K  C2004 09 04.14522 21 58 12.26 +11 17 48.0          18.9 R ER014H36
     K04R00K  C2004 09 04.15339 21 58 11.44 +11 17 26.3          19.6 R ER014H36
     K04R00K  C2004 09 04.81495 21 57 15.12 +10 50 52.4          18.0 V ER014151
     K04R00K  C2004 09 04.81759 21 57 14.90 +10 50 46.7          18.7 V ER014151
     K04R00K  C2004 09 04.81857 21 57 14.78 +10 50 43.9          18.6 V ER014151
     K04R00K  C2004 09 04.82092 21 57 14.56 +10 50 37.8          18.6 V ER014151
     K04R00K  C2004 09 04.82549 21 57 14.12 +10 50 27.4                 ER014246
     K04R00K  C2004 09 04.82619 21 57 14.04 +10 50 25.9                 ER014246
     K04R00K  C2004 09 04.82689 21 57 13.96 +10 50 24.3                 ER014246
     K04R00K  C2004 09 04.82762 21 57 13.92 +10 50 21.9                 ER014246
     K04R00K  C2004 09 04.82834 21 57 13.84 +10 50 20.2                 ER014246
     K04R00K  C2004 09 04.82917 21 57 13.76 +10 50 18.3                 ER014246

Observer details:
118 Modra.  Observer J. Vilagi.  0.6-m f/5.5 reflector + CCD.
143 Gnosca.  Observer S. Sposetti.  0.40-m f/4 reflector + CCD.
151 Eschenberg Observatory, Winterthur.  Observer M. Griesser.  0.40-m f/5.8
    Hypergraph + CCD.
163 Roeser Observatory, Luxembourg.  Observer M. Dawson.  0.50-m f/4 Newtonian
    + CCD.
246 Klet Observatory-KLENOT.  Observers J. Ticha, M. Tichy.  Measurer M. Tichy.
    1.06-m KLENOT Telescope + CCD.
699 Lowell Observatory-LONEOS.  Observer M. E. Van Ness.  0.59-m LONEOS
    Schmidt + CCD.
H36 Sandlot Observatory, Scranton.  Observer G. Hug.  0.3-m Schmidt-Cassegrain
    + CCD.
J95 Great Shefford.  Observer P. Birtwhistle.  0.30-m f/6.3 Schmidt-Cassegrain
    + CCD.

Orbital elements:
2004 RK
Epoch 2004 Aug. 23.0 TT = JDT 2453240.5                 MPC
M 280.61264              (2000.0)            P               Q
n   0.61532816     Peri.  265.38488     +0.09438648     -0.99552547
a   1.3689834      Node   179.15863     +0.99081440     +0.09349847
e   0.2866752      Incl.   17.83442     +0.09684019     +0.01367733
P   1.60           H   19.7           G   0.15
From 38 observations 2004 Sept. 3-4.

Ephemeris:
2004 RK                  a,e,i = 1.37, 0.29, 18                  q = 0.9765
Date    TT    R. A. (2000) Decl.     Delta      r     Elong.  Phase     V
2004 09 02    22 01.24   +12 39.5    0.380    1.367   156.7    17.0    19.2
2004 09 12    21 47.22   +05 24.8    0.342    1.324   154.6    19.0    19.0
2004 09 22    21 35.68   -03 37.4    0.323    1.280   144.5    27.1    19.0
2004 10 02    21 29.56   -13 08.7    0.320    1.236   131.4    37.4    19.2
2004 10 12    21 30.44   -21 55.2    0.330    1.193   118.8    47.2    19.5
2004 10 22    21 38.88   -29 18.6    0.347    1.150   107.8    55.5    19.7
2004 11 01    21 54.48   -35 15.1    0.366    1.110    98.9    62.1    20.0
2004 11 11    22 16.42   -39 55.4    0.384    1.072    91.7    67.3    20.1
2004 11 21    22 43.96   -43 31.1    0.397    1.040    86.2    71.5    20.3
2004 12 01    23 16.19   -46 12.7    0.404    1.013    82.1    74.7    20.4
2004 12 11    23 52.33   -48 05.2    0.404    0.992    79.3    77.2    20.4
2004 12 21    00 31.89   -49 09.1    0.397    0.980    77.8    78.8    20.4
2004 12 31    01 14.42   -49 21.6    0.383    0.977    77.7    79.7    20.4
2005 01 10    01 59.77   -48 31.3    0.364    0.982    79.1    79.6    20.2
2005 01 20    02 48.09   -46 18.0    0.340    0.996    82.1    78.2    20.1
2005 01 30    03 39.22   -42 12.7    0.314    1.017    86.9    75.2    19.8
2005 02 09    04 32.47   -35 37.1    0.291    1.046    93.5    70.4    19.6
2005 02 19    05 26.54   -26 11.6    0.277    1.079   101.7    63.7    19.3
2005 03 01    06 19.20   -14 42.9    0.280    1.117   109.8    56.5    19.2
2005 03 11    07 08.40   -03 14.7    0.305    1.158   115.5    50.7    19.3
2005 03 21    07 53.03   +06 08.8    0.352    1.201   117.7    47.3    19.6
2005 03 31    08 32.74   +12 43.3    0.418    1.245   116.9    45.7    20.0
2005 04 10    09 07.94   +16 48.9    0.498    1.289   114.3    45.1    20.5
2005 04 20    09 39.39   +19 01.9    0.588    1.332   110.8    44.8    20.9
2005 04 30    10 07.78   +19 55.2    0.686    1.375   107.0    44.5    21.3
2005 05 10    10 33.78   +19 52.7    0.790    1.416   103.1    44.0    21.6
2005 05 20    10 57.98   +19 10.6    0.899    1.456    99.1    43.3    22.0

Kyle E. Smalley              (C) Copyright 2004 MPC           M.P.E.C. 2004-R14

Read MPEC 2004-R13 Read MPEC 2004-R15


Our Web policy. Index to the CBAT/MPC/ICQ pages.


Valid HTML 4.01!